Regional Weather Roundup
Issued by NWS

Home | Current Version | Previous Version | Text Only | Print | Product List | Glossary Off
Versions: 1 2 3 4 5 6 7 8 9 10 11 12 13 14 15 16 17 18 19 20 21 22 23 24 25 26 27 28 29 30 31 32 33 34 35 36 37 38 39 40 41 42 43 44 45 46 47 48 49 50

373
ASUS45 KCYS 240610
RWRWY

WYOMING REGIONAL WEATHER ROUNDUP
NATIONAL WEATHER SERVICE CHEYENNE WY
1200 AM MDT SAT JUN 24 2017

NOTE:  "FAIR" INDICATES FEW OR NO CLOUDS BELOW 12,000 FEET
WITH NO SIGNIFICANT WEATHER AND/OR OBSTRUCTIONS TO VISIBILITY.

WYZ001-240700-
YELLOWSTONE NATIONAL PARK

CITY           SKY/WX    TMP DP  RH WIND       PRES   REMARKS
LK YELLOWSTONE   N/A     38  28  67 CALM      30.40F
6HR MIN TEMP:  38; 6HR MAX TEMP:  62;

W YELLOWSTONE  NOT AVBL

$$
WYZ002>013-054>058-071-098>099-240700-
NORTHERN WYOMING

CITY           SKY/WX    TMP DP  RH WIND       PRES   REMARKS
JACKSON        FAIR      41  36  81 N3        30.32R
CODY           FAIR      54  33  45 CALM      30.35R
GREYBULL       FAIR      59  30  33 NW6       30.26R
6HR MIN TEMP:  59; 6HR MAX TEMP:  74;

WORLAND        FAIR      50  34  54 NE5       30.27R
6HR MIN TEMP:  49; 6HR MAX TEMP:  73;

SHERIDAN       FAIR      47  37  68 S6        30.30S
6HR MIN TEMP:  47; 6HR MAX TEMP:  68;

BUFFALO        CLOUDY    54  35  48 NW6       30.34S
6HR MIN TEMP:  51; 6HR MAX TEMP:  64;

GILLETTE       FAIR      44  35  70 SW5       30.30R
6HR MIN TEMP:  43; 6HR MAX TEMP:  66;

NEWCASTLE      FAIR      46  28  49 N8        30.29F

$$
WYZ014>020-022>026-101>103-240700-
CENTRAL WYOMING

CITY           SKY/WX    TMP DP  RH WIND       PRES   REMARKS
BIG PINEY      FAIR      42  29  59 E6        30.34R
6HR MIN TEMP:  41; 6HR MAX TEMP:  74;

PINEDALE       FAIR      45  30  57 N6        30.34S
DUBOIS         FAIR      43  28  56 SW3       30.38R
LANDER         FAIR      53  32  44 W7        30.32R
6HR MIN TEMP:  53; 6HR MAX TEMP:  69;

RIVERTON       CLOUDY    56  32  40 E8G18     30.33R
6HR MIN TEMP:  56; 6HR MAX TEMP:  69;

CASPER         FAIR      44  32  62 NE8       30.34S
6HR MIN TEMP:  44; 6HR MAX TEMP:  68;

DOUGLAS        FAIR      46  34  62 SE3       30.34S
6HR MIN TEMP:  45; 6HR MAX TEMP:  68;


$$
WYZ021-027>030-104>119-240700-
SOUTHERN WYOMING

CITY           SKY/WX    TMP DP  RH WIND       PRES   REMARKS
EVANSTON       FAIR      55  33  43 N8        30.34S
6HR MIN TEMP:  55; 6HR MAX TEMP:  74;

KEMMERER         N/A     50  30  46 N12       30.35S
FORT BRIDGER   FAIR      57  28  32 W7        30.37S
ROCK SPRINGS   FAIR      54  29  38 NE13      30.32S
6HR MIN TEMP:  54; 6HR MAX TEMP:  77;

DIXON          FAIR      52  33  47 SE12      30.27S
RAWLINS        FAIR      53  29  39 NE20G29   30.32S
6HR MIN TEMP:  53; 6HR MAX TEMP:  73;

SARATOGA       FAIR      54  39  58 S6        30.30S
LARAMIE        FAIR      46  40  79 E9        30.37F
6HR MIN TEMP:  46; 6HR MAX TEMP:  62;

CHEYENNE       MOCLDY    53  43  68 CALM      30.36S
6HR MIN TEMP:  53; 6HR MAX TEMP:  65;

TORRINGTON     MOCLDY    54  31  41 CALM      30.29R
6HR MIN TEMP:  51; 6HR MAX TEMP:  72;

PINE BLUFFS    MOCLDY    52  43  71 CALM      30.34S

$$




USA.gov is the U.S. government's official web portal to all federal, state and local government web resources and services.